| time (UTC) | temp C | wind direction | speed KPH | gust KPH | rain 1hr cm | rain 24hr cm | rain mn cm | humidity % | barometer mb |
| 20260507023005 | 11 | 132 | 0.0 | 1.6 | 0.00 | 0.00 | 0.00 | 76 | 827.5 |
| 20260507021505 | 12 | 0 | 0.0 | 0.0 | 0.00 | 0.00 | 0.00 | 73 | 827.5 |
| 20260507021005 | 12 | 0 | 0.0 | 0.0 | 0.00 | 0.00 | 0.00 | 72 | 827.5 |
| 20260507020005 | 12 | 288 | 0.0 | 0.0 | 0.00 | 0.00 | 0.00 | 70 | 827.6 |
| 20260507015505 | 13 | 157 | 0.0 | 1.6 | 0.00 | 0.00 | 0.00 | 69 | 827.6 |
| 20260507015005 | 13 | 68 | 1.6 | 3.2 | 0.00 | 0.00 | 0.00 | 68 | 827.7 |
| 20260507014505 | 13 | 53 | 3.2 | 4.8 | 0.00 | 0.00 | 0.00 | 67 | 827.7 |
| 20260507014005 | 13 | 47 | 1.6 | 1.6 | 0.00 | 0.00 | 0.00 | 67 | 827.7 |
| 20260507013505 | 13 | 73 | 1.6 | 3.2 | 0.00 | 0.00 | 0.00 | 65 | 827.7 |
| 20260507013005 | 14 | 59 | 3.2 | 3.2 | 0.00 | 0.00 | 0.00 | 64 | 827.7 |
| 20260507012504 | 14 | 57 | 3.2 | 3.2 | 0.00 | 0.00 | 0.00 | 63 | 827.8 |
| 20260507012005 | 14 | 64 | 1.6 | 3.2 | 0.00 | 0.00 | 0.00 | 63 | 827.8 |
| 20260507011504 | 14 | 76 | 0.0 | 1.6 | 0.00 | 0.00 | 0.00 | 62 | 827.8 |
| 20260507011005 | 15 | 49 | 3.2 | 4.8 | 0.00 | 0.00 | 0.00 | 61 | 827.8 |
| 20260507010506 | 15 | 54 | 4.8 | 6.4 | 0.00 | 0.00 | 0.00 | 61 | 827.8 |
| 20260507010005 | 15 | 57 | 3.2 | 4.8 | 0.00 | 0.00 | 0.00 | 61 | 827.9 |
| 20260507005507 | 15 | 49 | 4.8 | 6.4 | 0.00 | 0.00 | 0.00 | 60 | 827.9 |
| 20260507005005 | 15 | 42 | 4.8 | 6.4 | 0.00 | 0.00 | 0.00 | 59 | 827.9 |
| 20260507004505 | 15 | 52 | 4.8 | 6.4 | 0.00 | 0.00 | 0.00 | 58 | 827.9 |
| 20260507004005 | 15 | 56 | 6.4 | 8.0 | 0.00 | 0.00 | 0.00 | 58 | 827.9 |
| 20260507003504 | 15 | 60 | 8.0 | 11.3 | 0.00 | 0.00 | 0.00 | 57 | 827.9 |
| 20260507002505 | 16 | 53 | 8.0 | 9.7 | 0.00 | 0.00 | 0.00 | 56 | 828.0 |
| 20260507001504 | 16 | 58 | 11.3 | 16.1 | 0.00 | 0.00 | 0.00 | 55 | 828.0 |
| 20260507001005 | 16 | 48 | 11.3 | 14.5 | 0.00 | 0.00 | 0.00 | 55 | 828.0 |
| 20260507000505 | 16 | 58 | 11.3 | 12.9 | 0.00 | 0.00 | 0.00 | 55 | 828.0 |
| 20260506235505 | 16 | 44 | 12.9 | 16.1 | 0.00 | 0.00 | 0.00 | 53 | 828.0 |
| 20260506234504 | 16 | 46 | 12.9 | 14.5 | 0.00 | 0.00 | 0.00 | 54 | 828.0 |
| 20260506234005 | 16 | 61 | 9.7 | 14.5 | 0.00 | 0.00 | 0.00 | 54 | 828.0 |
| 20260506233506 | 16 | 43 | 12.9 | 17.7 | 0.00 | 0.00 | 0.00 | 54 | 828.0 |
| 20260506233006 | 16 | 48 | 12.9 | 16.1 | 0.00 | 0.00 | 0.00 | 56 | 828.0 |
| 20260506232504 | 15 | 23 | 6.4 | 11.3 | 0.00 | 0.00 | 0.00 | 56 | 828.0 |
| 20260506232005 | 16 | 11 | 3.2 | 4.8 | 0.00 | 0.00 | 0.00 | 55 | 828.0 |
| 20260506231505 | 16 | 37 | 8.0 | 11.3 | 0.00 | 0.00 | 0.00 | 55 | 828.0 |
| 20260506231005 | 16 | 43 | 12.9 | 17.7 | 0.00 | 0.00 | 0.00 | 55 | 828.0 |
| 20260506230504 | 16 | 46 | 12.9 | 17.7 | 0.00 | 0.00 | 0.00 | 55 | 828.0 |
| 20260506230005 | 16 | 59 | 11.3 | 17.7 | 0.00 | 0.00 | 0.00 | 55 | 828.0 |
| 20260506225504 | 16 | 36 | 11.3 | 17.7 | 0.00 | 0.00 | 0.00 | 54 | 828.0 |
| 20260506225004 | 16 | 40 | 11.3 | 16.1 | 0.00 | 0.00 | 0.00 | 54 | 828.0 |
| 20260506224505 | 16 | 46 | 14.5 | 19.3 | 0.00 | 0.00 | 0.00 | 54 | 828.1 |
| 20260506223505 | 16 | 48 | 11.3 | 14.5 | 0.00 | 0.00 | 0.00 | 53 | 828.1 |
| 20260506223005 | 16 | 43 | 14.5 | 17.7 | 0.00 | 0.00 | 0.00 | 53 | 828.1 |
| 20260506222005 | 16 | 42 | 11.3 | 12.9 | 0.00 | 0.00 | 0.00 | 53 | 828.1 |
| 20260506221504 | 16 | 347 | 4.8 | 12.9 | 0.00 | 0.00 | 0.00 | 53 | 828.1 |
| 20260506221004 | 16 | 25 | 6.4 | 12.9 | 0.00 | 0.00 | 0.00 | 52 | 828.1 |
| 20260506220505 | 16 | 10 | 4.8 | 8.0 | 0.00 | 0.00 | 0.00 | 53 | 828.1 |
| 20260506220005 | 16 | 350 | 6.4 | 9.7 | 0.00 | 0.00 | 0.00 | 54 | 828.1 |
| 20260506215504 | 16 | 33 | 9.7 | 19.3 | 0.00 | 0.00 | 0.00 | 53 | 828.1 |
| 20260506214505 | 17 | 43 | 19.3 | 25.7 | 0.00 | 0.00 | 0.00 | 53 | 828.1 |
| 20260506213004 | 16 | 32 | 9.7 | 19.3 | 0.00 | 0.00 | 0.00 | 52 | 828.1 |
| 20260506212005 | 16 | 35 | 12.9 | 16.1 | 0.00 | 0.00 | 0.00 | 51 | 828.1 |
| 20260506211506 | 16 | 27 | 8.0 | 17.7 | 0.00 | 0.00 | 0.00 | 51 | 828.1 |
| 20260506211004 | 16 | 23 | 4.8 | 12.9 | 0.00 | 0.00 | 0.00 | 52 | 828.1 |
| 20260506205006 | 16 | 27 | 8.0 | 14.5 | 0.00 | 0.00 | 0.00 | 53 | 828.1 |
| 20260506204505 | 16 | 32 | 9.7 | 16.1 | 0.00 | 0.00 | 0.00 | 53 | 828.1 |
| 20260506203505 | 16 | 358 | 3.2 | 6.4 | 0.00 | 0.00 | 0.00 | 52 | 828.1 |
| 20260506203005 | 16 | 26 | 11.3 | 20.9 | 0.00 | 0.00 | 0.00 | 52 | 828.1 |
| 20260506202506 | 16 | 32 | 6.4 | 14.5 | 0.00 | 0.00 | 0.00 | 53 | 828.1 |
| 20260506202005 | 16 | 42 | 24.1 | 32.2 | 0.00 | 0.00 | 0.00 | 53 | 828.1 |
| 20260506201504 | 16 | 50 | 17.7 | 22.5 | 0.00 | 0.00 | 0.00 | 52 | 828.1 |
| 20260506201004 | 16 | 359 | 6.4 | 9.7 | 0.00 | 0.00 | 0.00 | 53 | 828.1 |
| 20260506200504 | 16 | 35 | 14.5 | 20.9 | 0.00 | 0.00 | 0.00 | 52 | 828.0 |
| 20260506200005 | 16 | 37 | 12.9 | 17.7 | 0.00 | 0.00 | 0.00 | 52 | 828.0 |
| 20260506195505 | 16 | 37 | 11.3 | 17.7 | 0.00 | 0.00 | 0.00 | 53 | 828.1 |
| 20260506195005 | 16 | 31 | 9.7 | 17.7 | 0.00 | 0.00 | 0.00 | 53 | 828.1 |
| 20260506194504 | 15 | 44 | 12.9 | 17.7 | 0.00 | 0.00 | 0.00 | 54 | 828.1 |
| 20260506194004 | 15 | 33 | 12.9 | 20.9 | 0.00 | 0.00 | 0.00 | 55 | 828.0 |
| 20260506193505 | 15 | 18 | 11.3 | 19.3 | 0.00 | 0.00 | 0.00 | 54 | 827.9 |
| 20260506193005 | 15 | 42 | 14.5 | 22.5 | 0.00 | 0.00 | 0.00 | 53 | 828.0 |
| 20260506192505 | 15 | 36 | 8.0 | 14.5 | 0.00 | 0.00 | 0.00 | 56 | 828.0 |
| 20260506192005 | 15 | 352 | 6.4 | 16.1 | 0.00 | 0.00 | 0.00 | 55 | 828.0 |
| 20260506191505 | 15 | 1 | 3.2 | 9.7 | 0.00 | 0.00 | 0.00 | 56 | 828.0 |
| 20260506191005 | 15 | 351 | 8.0 | 14.5 | 0.00 | 0.00 | 0.00 | 56 | 828.0 |
| 20260506190006 | 15 | 25 | 8.0 | 17.7 | 0.00 | 0.00 | 0.00 | 57 | 828.0 |
| 20260506185505 | 14 | 39 | 8.0 | 12.9 | 0.00 | 0.00 | 0.00 | 58 | 827.9 |
| 20260506184505 | 14 | 57 | 17.7 | 19.3 | 0.00 | 0.00 | 0.00 | 58 | 827.8 |
| 20260506184005 | 14 | 53 | 14.5 | 20.9 | 0.00 | 0.00 | 0.00 | 56 | 827.9 |
| 20260506183005 | 13 | 82 | 12.9 | 20.9 | 0.00 | 0.00 | 0.00 | 59 | 827.9 |
| 20260506182505 | 13 | 94 | 14.5 | 19.3 | 0.00 | 0.00 | 0.00 | 58 | 827.9 |
| 20260506182005 | 13 | 64 | 11.3 | 16.1 | 0.00 | 0.00 | 0.00 | 60 | 827.8 |
| 20260506181505 | 13 | 48 | 17.7 | 22.5 | 0.00 | 0.00 | 0.00 | 60 | 827.7 |
| 20260506181004 | 13 | 40 | 17.7 | 22.5 | 0.00 | 0.00 | 0.00 | 60 | 827.7 |
| 20260506180505 | 13 | 41 | 11.3 | 14.5 | 0.00 | 0.00 | 0.00 | 61 | 827.7 |
| 20260506180006 | 12 | 53 | 14.5 | 17.7 | 0.00 | 0.00 | 0.00 | 61 | 827.7 |
| 20260506175505 | 12 | 45 | 14.5 | 17.7 | 0.00 | 0.00 | 0.00 | 62 | 827.7 |
| 20260506175005 | 12 | 59 | 14.5 | 19.3 | 0.00 | 0.00 | 0.00 | 63 | 827.7 |
| 20260506174505 | 12 | 68 | 11.3 | 16.1 | 0.00 | 0.00 | 0.00 | 62 | 827.7 |
| 20260506174005 | 12 | 71 | 11.3 | 17.7 | 0.00 | 0.00 | 0.00 | 63 | 827.7 |
| 20260506173504 | 12 | 68 | 16.1 | 22.5 | 0.00 | 0.00 | 0.00 | 63 | 827.7 |
| 20260506173005 | 12 | 67 | 12.9 | 17.7 | 0.00 | 0.00 | 0.00 | 63 | 827.7 |
| 20260506172505 | 12 | 53 | 12.9 | 24.1 | 0.00 | 0.00 | 0.00 | 63 | 827.6 |
| 20260506172005 | 12 | 47 | 17.7 | 27.4 | 0.00 | 0.00 | 0.00 | 63 | 827.6 |
| 20260506171505 | 12 | 39 | 16.1 | 20.9 | 0.00 | 0.00 | 0.00 | 63 | 827.6 |
| 20260506171005 | 12 | 59 | 14.5 | 19.3 | 0.00 | 0.00 | 0.00 | 64 | 827.6 |
| 20260506170504 | 12 | 45 | 22.5 | 27.4 | 0.00 | 0.00 | 0.00 | 63 | 827.6 |
| 20260506170004 | 12 | 43 | 16.1 | 20.9 | 0.00 | 0.00 | 0.00 | 64 | 827.6 |
| 20260506165504 | 12 | 38 | 9.7 | 19.3 | 0.00 | 0.00 | 0.00 | 63 | 827.6 |
| 20260506165005 | 11 | 39 | 16.1 | 22.5 | 0.00 | 0.00 | 0.00 | 65 | 827.6 |
| 20260506164505 | 11 | 37 | 11.3 | 17.7 | 0.00 | 0.00 | 0.00 | 64 | 827.6 |
| 20260506164004 | 11 | 44 | 19.3 | 24.1 | 0.00 | 0.00 | 0.00 | 64 | 827.6 |
| 20260506163505 | 12 | 38 | 12.9 | 16.1 | 0.00 | 0.00 | 0.00 | 65 | 827.6 |
| 20260506163004 | 12 | 45 | 14.5 | 22.5 | 0.00 | 0.00 | 0.00 | 64 | 827.6 |
| 20260506162504 | 11 | 45 | 12.9 | 19.3 | 0.00 | 0.00 | 0.00 | 64 | 827.6 |
| 20260506162005 | 11 | 47 | 11.3 | 17.7 | 0.00 | 0.00 | 0.00 | 65 | 827.6 |
| 20260506161004 | 11 | 48 | 16.1 | 20.9 | 0.00 | 0.00 | 0.00 | 65 | 827.6 |
| 20260506160505 | 11 | 51 | 16.1 | 22.5 | 0.00 | 0.00 | 0.00 | 64 | 827.6 |
| 20260506160005 | 11 | 44 | 14.5 | 22.5 | 0.00 | 0.00 | 0.00 | 66 | 827.6 |
| 20260506155504 | 11 | 41 | 19.3 | 25.7 | 0.00 | 0.00 | 0.00 | 65 | 827.5 |
| 20260506155005 | 11 | 50 | 24.1 | 32.2 | 0.00 | 0.00 | 0.00 | 67 | 827.5 |
| 20260506154006 | 11 | 65 | 16.1 | 20.9 | 0.00 | 0.00 | 0.00 | 67 | 827.5 |
| 20260506153505 | 10 | 58 | 19.3 | 25.7 | 0.00 | 0.00 | 0.00 | 68 | 827.5 |
| 20260506153004 | 10 | 44 | 17.7 | 20.9 | 0.00 | 0.00 | 0.00 | 68 | 827.4 |
| 20260506152505 | 10 | 43 | 20.9 | 27.4 | 0.00 | 0.00 | 0.00 | 70 | 827.4 |
| 20260506151504 | 10 | 42 | 16.1 | 19.3 | 0.00 | 0.00 | 0.00 | 71 | 827.4 |
| 20260506151006 | 10 | 44 | 20.9 | 25.7 | 0.00 | 0.00 | 0.00 | 71 | 827.4 |
| 20260506150005 | 10 | 35 | 16.1 | 20.9 | 0.00 | 0.00 | 0.00 | 72 | 827.4 |
| 20260506145504 | 10 | 34 | 14.5 | 20.9 | 0.00 | 0.00 | 0.00 | 72 | 827.4 |
| 20260506145004 | 10 | 46 | 17.7 | 27.4 | 0.00 | 0.00 | 0.00 | 73 | 827.4 |
| 20260506144505 | 10 | 42 | 8.0 | 12.9 | 0.00 | 0.00 | 0.00 | 74 | 827.4 |
| 20260506144007 | 9 | 39 | 16.1 | 20.9 | 0.00 | 0.00 | 0.00 | 74 | 827.3 |
| 20260506143505 | 9 | 46 | 24.1 | 33.8 | 0.00 | 0.00 | 0.00 | 74 | 827.3 |
| 20260506143005 | 9 | 33 | 25.7 | 32.2 | 0.00 | 0.00 | 0.00 | 74 | 827.3 |
| 20260506142505 | 9 | 18 | 17.7 | 27.4 | 0.00 | 0.00 | 0.00 | 75 | 827.3 |
| 20260506142005 | 9 | 35 | 17.7 | 25.7 | 0.00 | 0.00 | 0.00 | 75 | 827.3 |
| 20260506141505 | 9 | 38 | 16.1 | 29.0 | 0.00 | 0.00 | 0.00 | 75 | 827.3 |
| 20260506141006 | 9 | 25 | 9.7 | 14.5 | 0.00 | 0.00 | 0.00 | 76 | 827.3 |
| 20260506134505 | 8 | 3 | 6.4 | 11.3 | 0.00 | 0.00 | 0.00 | 76 | 827.3 |
| 20260506134004 | 8 | 15 | 9.7 | 16.1 | 0.00 | 0.00 | 0.00 | 76 | 827.2 |
| 20260506133505 | 8 | 1 | 8.0 | 12.9 | 0.00 | 0.00 | 0.00 | 76 | 827.2 |
| 20260506133004 | 8 | 15 | 9.7 | 16.1 | 0.00 | 0.00 | 0.00 | 76 | 827.2 |
| 20260506132505 | 8 | 16 | 11.3 | 24.1 | 0.00 | 0.00 | 0.00 | 75 | 827.2 |
| 20260506131505 | 8 | 18 | 8.0 | 9.7 | 0.00 | 0.00 | 0.00 | 75 | 827.2 |
| 20260506131005 | 8 | 27 | 6.4 | 14.5 | 0.00 | 0.00 | 0.00 | 75 | 827.2 |
| 20260506130005 | 8 | 0 | 6.4 | 11.3 | 0.00 | 0.00 | 0.00 | 75 | 827.2 |
| 20260506125505 | 8 | 35 | 11.3 | 20.9 | 0.00 | 0.00 | 0.00 | 74 | 827.2 |
| 20260506125004 | 8 | 1 | 8.0 | 11.3 | 0.00 | 0.00 | 0.00 | 74 | 827.2 |
| 20260506124504 | 8 | 36 | 12.9 | 17.7 | 0.00 | 0.00 | 0.00 | 74 | 827.2 |
| 20260506124006 | 8 | 24 | 11.3 | 16.1 | 0.00 | 0.00 | 0.00 | 74 | 827.2 |
| 20260506123504 | 8 | 14 | 6.4 | 11.3 | 0.00 | 0.00 | 0.00 | 74 | 827.2 |
| 20260506122505 | 8 | 25 | 14.5 | 20.9 | 0.00 | 0.00 | 0.00 | 74 | 827.2 |
| 20260506122005 | 8 | 6 | 9.7 | 12.9 | 0.00 | 0.00 | 0.00 | 74 | 827.2 |
| 20260506121505 | 8 | 17 | 9.7 | 14.5 | 0.00 | 0.00 | 0.00 | 74 | 827.2 |
| 20260506120505 | 8 | 19 | 6.4 | 9.7 | 0.00 | 0.00 | 0.00 | 74 | 827.2 |
| 20260506115505 | 8 | 25 | 8.0 | 12.9 | 0.00 | 0.00 | 0.00 | 75 | 827.2 |
| 20260506115005 | 8 | 19 | 8.0 | 14.5 | 0.00 | 0.00 | 0.00 | 75 | 827.2 |
| 20260506114504 | 8 | 25 | 8.0 | 9.7 | 0.00 | 0.00 | 0.00 | 75 | 827.2 |
| 20260506114005 | 8 | 23 | 9.7 | 16.1 | 0.00 | 0.00 | 0.00 | 75 | 827.2 |
| 20260506113504 | 8 | 32 | 8.0 | 11.3 | 0.00 | 0.00 | 0.00 | 75 | 827.2 |
| 20260506113005 | 8 | 30 | 9.7 | 16.1 | 0.00 | 0.00 | 0.00 | 75 | 827.2 |
| 20260506112505 | 8 | 32 | 11.3 | 17.7 | 0.00 | 0.00 | 0.00 | 74 | 827.2 |
| 20260506112005 | 8 | 11 | 6.4 | 11.3 | 0.00 | 0.00 | 0.00 | 75 | 827.2 |
| 20260506111506 | 8 | 26 | 8.0 | 12.9 | 0.00 | 0.00 | 0.00 | 74 | 827.2 |
| 20260506111006 | 8 | 13 | 8.0 | 16.1 | 0.00 | 0.00 | 0.00 | 74 | 827.2 |
| 20260506110504 | 8 | 0 | 6.4 | 9.7 | 0.00 | 0.00 | 0.00 | 74 | 827.2 |
| 20260506110005 | 8 | 348 | 8.0 | 11.3 | 0.00 | 0.00 | 0.00 | 75 | 827.2 |
| 20260506105504 | 8 | 5 | 6.4 | 9.7 | 0.00 | 0.00 | 0.00 | 74 | 827.2 |
| 20260506104505 | 8 | 25 | 8.0 | 11.3 | 0.00 | 0.00 | 0.00 | 75 | 827.2 |
| 20260506104005 | 8 | 28 | 9.7 | 12.9 | 0.00 | 0.00 | 0.00 | 74 | 827.2 |
| 20260506103505 | 8 | 16 | 8.0 | 9.7 | 0.00 | 0.00 | 0.00 | 74 | 827.2 |
| 20260506102005 | 8 | 15 | 8.0 | 11.3 | 0.00 | 0.00 | 0.00 | 74 | 827.2 |
| 20260506101505 | 8 | 351 | 3.2 | 4.8 | 0.00 | 0.00 | 0.00 | 74 | 827.2 |
| 20260506100504 | 8 | 11 | 8.0 | 11.3 | 0.00 | 0.00 | 0.00 | 74 | 827.2 |
| 20260506100005 | 8 | 350 | 4.8 | 6.4 | 0.00 | 0.00 | 0.00 | 74 | 827.2 |
| 20260506095505 | 8 | 359 | 4.8 | 8.0 | 0.00 | 0.00 | 0.00 | 74 | 827.2 |
| 20260506095004 | 9 | 7 | 3.2 | 6.4 | 0.00 | 0.00 | 0.00 | 74 | 827.2 |
| 20260506094505 | 9 | 353 | 4.8 | 6.4 | 0.00 | 0.00 | 0.00 | 73 | 827.2 |
| 20260506094005 | 9 | 1 | 4.8 | 8.0 | 0.00 | 0.00 | 0.00 | 73 | 827.2 |
| 20260506093504 | 9 | 358 | 4.8 | 9.7 | 0.00 | 0.00 | 0.00 | 73 | 827.2 |
| 20260506093005 | 9 | 354 | 4.8 | 6.4 | 0.00 | 0.00 | 0.00 | 72 | 827.2 |
| 20260506092505 | 9 | 352 | 4.8 | 8.0 | 0.00 | 0.00 | 0.00 | 72 | 827.2 |
| 20260506092005 | 9 | 343 | 4.8 | 6.4 | 0.00 | 0.00 | 0.00 | 72 | 827.2 |
| 20260506091505 | 9 | 9 | 6.4 | 9.7 | 0.00 | 0.00 | 0.00 | 72 | 827.3 |
| 20260506091005 | 9 | 338 | 6.4 | 8.0 | 0.00 | 0.00 | 0.00 | 72 | 827.2 |
| 20260506090005 | 9 | 344 | 3.2 | 4.8 | 0.00 | 0.00 | 0.00 | 72 | 827.3 |
| 20260506085504 | 9 | 351 | 4.8 | 6.4 | 0.00 | 0.00 | 0.00 | 72 | 827.3 |
| 20260506085004 | 9 | 339 | 4.8 | 8.0 | 0.00 | 0.00 | 0.00 | 72 | 827.3 |
| 20260506084504 | 9 | 353 | 4.8 | 6.4 | 0.00 | 0.00 | 0.00 | 71 | 827.3 |
| 20260506082004 | 9 | 20 | 4.8 | 9.7 | 0.00 | 0.00 | 0.00 | 68 | 827.3 |
| 20260506081505 | 9 | 356 | 6.4 | 8.0 | 0.00 | 0.00 | 0.00 | 68 | 827.3 |
| 20260506081005 | 9 | 25 | 9.7 | 19.3 | 0.00 | 0.00 | 0.00 | 68 | 827.3 |
| 20260506080505 | 9 | 32 | 12.9 | 16.1 | 0.00 | 0.00 | 0.00 | 67 | 827.3 |
| 20260506073505 | 10 | 29 | 12.9 | 16.1 | 0.00 | 0.00 | 0.00 | 65 | 827.3 |
| 20260506073005 | 9 | 42 | 17.7 | 22.5 | 0.00 | 0.00 | 0.00 | 65 | 827.3 |
| 20260506072505 | 9 | 34 | 14.5 | 20.9 | 0.00 | 0.00 | 0.00 | 65 | 827.3 |
| 20260506072004 | 9 | 25 | 16.1 | 24.1 | 0.00 | 0.00 | 0.00 | 66 | 827.3 |
| 20260506071505 | 9 | 36 | 11.3 | 14.5 | 0.00 | 0.00 | 0.00 | 67 | 827.3 |
| 20260506071007 | 9 | 34 | 19.3 | 29.0 | 0.00 | 0.00 | 0.00 | 67 | 827.3 |
| 20260506070505 | 9 | 38 | 11.3 | 14.5 | 0.00 | 0.00 | 0.00 | 68 | 827.3 |
| 20260506062505 | 9 | 23 | 8.0 | 14.5 | 0.00 | 0.00 | 0.00 | 71 | 827.3 |
| 20260506061504 | 9 | 21 | 14.5 | 20.9 | 0.00 | 0.00 | 0.00 | 72 | 827.3 |
| 20260506061004 | 9 | 42 | 12.9 | 19.3 | 0.00 | 0.00 | 0.00 | 73 | 827.3 |
| 20260506060504 | 9 | 36 | 12.9 | 19.3 | 0.00 | 0.00 | 0.00 | 73 | 827.3 |
| 20260506051005 | 9 | 34 | 14.5 | 19.3 | 0.00 | 0.00 | 0.00 | 76 | 827.3 |
| 20260506045005 | 9 | 35 | 12.9 | 17.7 | 0.00 | 0.00 | 0.00 | 79 | 827.3 |
| 20260506044505 | 9 | 29 | 14.5 | 22.5 | 0.00 | 0.00 | 0.00 | 79 | 827.3 |
| 20260506044006 | 9 | 6 | 6.4 | 12.9 | 0.00 | 0.00 | 0.00 | 79 | 827.3 |
| 20260506043505 | 9 | 24 | 11.3 | 24.1 | 0.00 | 0.00 | 0.00 | 80 | 827.3 |
| 20260506043005 | 9 | 39 | 11.3 | 17.7 | 0.00 | 0.00 | 0.00 | 80 | 827.3 |
| 20260506042504 | 9 | 6 | 8.0 | 14.5 | 0.00 | 0.00 | 0.00 | 80 | 827.3 |
| 20260506042005 | 9 | 356 | 8.0 | 9.7 | 0.00 | 0.00 | 0.00 | 81 | 827.3 |
| 20260506041505 | 9 | 15 | 8.0 | 14.5 | 0.00 | 0.00 | 0.00 | 81 | 827.3 |
| 20260506041005 | 9 | 32 | 9.7 | 14.5 | 0.00 | 0.00 | 0.00 | 81 | 827.3 |
| 20260506040005 | 9 | 33 | 9.7 | 14.5 | 0.00 | 0.00 | 0.00 | 81 | 827.3 |
| 20260506035507 | 9 | 7 | 6.4 | 12.9 | 0.00 | 0.00 | 0.00 | 81 | 827.3 |
| 20260506035004 | 9 | 10 | 6.4 | 12.9 | 0.00 | 0.00 | 0.00 | 81 | 827.3 |
| 20260506034504 | 9 | 1 | 3.2 | 8.0 | 0.00 | 0.00 | 0.00 | 81 | 827.3 |
| 20260506034005 | 9 | 1 | 6.4 | 11.3 | 0.00 | 0.00 | 0.00 | 81 | 827.3 |
| 20260506033505 | 9 | 16 | 6.4 | 11.3 | 0.00 | 0.00 | 0.00 | 81 | 827.3 |
| 20260506033005 | 9 | 21 | 6.4 | 14.5 | 0.00 | 0.00 | 0.00 | 80 | 827.3 |
| 20260506032505 | 9 | 37 | 9.7 | 14.5 | 0.00 | 0.00 | 0.00 | 81 | 827.3 |
| 20260506032005 | 9 | 29 | 8.0 | 12.9 | 0.00 | 0.00 | 0.00 | 81 | 827.3 |
| 20260506031504 | 9 | 34 | 11.3 | 16.1 | 0.00 | 0.00 | 0.00 | 81 | 827.3 |
| 20260506030005 | 9 | 348 | 8.0 | 14.5 | 0.00 | 0.00 | 0.00 | 81 | 827.3 |
| 20260506025505 | 9 | 353 | 6.4 | 8.0 | 0.00 | 0.00 | 0.00 | 80 | 827.3 |
| 20260506025005 | 9 | 344 | 6.4 | 12.9 | 0.00 | 0.00 | 0.00 | 80 | 827.3 |
| 20260506024505 | 10 | 26 | 11.3 | 19.3 | 0.00 | 0.00 | 0.00 | 80 | 827.3 |
| 20260506024005 | 10 | 28 | 11.3 | 17.7 | 0.00 | 0.00 | 0.00 | 80 | 827.3 |
| 20260506023505 | 10 | 354 | 6.4 | 9.7 | 0.00 | 0.00 | 0.00 | 79 | 827.3 |